Location: Warner Observatory
(35.1353°N, 89.5455°W)
Time: 22:38:01
(UTC-05:00)

Amateur Radio Satellites - All Passes

Search period start: 24 June 2017 22:08
Search period end: 25 June 2017 22:08
Location: Warner Observatory, 35.1353°N, 89.5455°W

Satellite Date Start Highest point End Downlink Frequencies (MHz)
Time Altitude Azimuth
Oscar 11 24 Jun 22:13:41 22:16:05 14° 267° (W) 22:18:30 .
NO-84 24 Jun 22:16:32 22:20:21 65° 314° (NW) 22:24:30 435.350 FM
M-CUBED/EXP-1 PRIME 24 Jun 22:22:25 22:26:06 51° 105° (ESE) 22:30:04 437.505
DELFI C3 24 Jun 22:22:32 22:26:13 39° 261° (W) 22:29:54 145.870
TIGRISAT 24 Jun 22:25:41 22:29:52 32° 97° (E) 22:33:57 435.000
LO-87 24 Jun 22:28:24 22:30:31 15° 70° (ENE) 22:32:38 145.935 - 145.965
O/OREOS (USA 219) 24 Jun 22:33:14 22:37:28 38° 294° (WNW) 22:41:43 437.305
PRISM 24 Jun 22:34:31 22:38:27 43° 100° (E) 22:42:22 437.425
ESTCUBE 1 24 Jun 22:47:02 22:50:14 19° 68° (ENE) 22:53:26 437.505/2401.250
SO-50 24 Jun 22:50:11 22:53:08 17° 48° (NE) 22:56:05 436.795
RS-15 24 Jun 22:50:15 23:01:47 47° 310° (NW) 23:13:36 29.354- 29.394
BEESAT 2 24 Jun 23:03:50 23:06:49 20° 308° (NW) 23:09:51 435.950
UNISAT 6 24 Jun 23:07:10 23:11:50 76° 284° (WNW) 23:16:22 437.425
YUBILEINY 24 Jun 23:09:02 23:17:37 58° 280° (W) 23:26:18 435.215
PCSat 24 Jun 23:09:46 23:14:17 27° 253° (WSW) 23:18:45 145.827
FO-29 24 Jun 23:10:59 23:18:48 71° 287° (WNW) 23:26:28 435.910
SPROUT 24 Jun 23:22:46 23:23:34 10° 65° (ENE) 23:24:21 437.525
AIST 2D 24 Jun 23:32:14 23:34:47 19° 95° (E) 23:37:20 435.315
NO-84 24 Jun 23:57:01 23:58:43 12° 333° (NNW) 00:00:27 435.350 FM
M-CUBED/EXP-1 PRIME 24 Jun 23:59:32 00:00:12 10° 297° (WNW) 00:00:52 437.505
LO-87 25 Jun 00:00:45 00:03:42 25° 263° (W) 00:06:41 145.935 - 145.965
TIGRISAT 25 Jun 00:02:50 00:06:16 21° 292° (WNW) 00:09:40 435.000
POLYITAN 1 25 Jun 00:06:21 00:09:54 25° 96° (E) 00:13:23 437.675
PRISM 25 Jun 00:11:27 00:13:19 13° 294° (WNW) 00:15:11 437.425
QB50P2 25 Jun 00:16:47 00:20:45 36° 98° (E) 00:24:41 145.880/145.840
ESTCUBE 1 25 Jun 00:22:42 00:26:46 33° 263° (W) 00:30:50 437.505/2401.250
VELOX 1 25 Jun 00:27:27 00:31:44 59° 75° (ENE) 00:36:03 145.980
SO-50 25 Jun 00:29:27 00:33:51 50° 245° (WSW) 00:38:15 436.795
BUGSAT 1 25 Jun 00:36:35 00:38:10 12° 92° (E) 00:39:43 437.445
EO-79 25 Jun 00:41:22 00:45:38 68° 101° (ESE) 00:49:51 145.935-145.965
DX 1 25 Jun 00:50:07 00:53:58 32° 71° (ENE) 00:57:50 434.975-435.025
SPROUT 25 Jun 00:54:43 00:58:54 58° 259° (W) 01:03:08 437.525
DUCHIFAT 1 25 Jun 00:56:20 01:00:36 82° 100° (E) 01:04:50 145.980
FO-29 25 Jun 00:59:11 01:02:26 13° 303° (WNW) 01:05:41 435.910
NANOSAT C BR1 25 Jun 01:04:27 01:08:42 69° 285° (WNW) 01:12:54 145.865
AIST 2D 25 Jun 01:05:22 01:07:51 19° 289° (WNW) 01:10:20 435.315
UKube-1 25 Jun 01:08:49 01:12:43 35° 72° (ENE) 01:16:38 .
RS-15 25 Jun 01:11:25 01:18:41 17° 340° (NNW) 01:25:58 29.354- 29.394
50 SAT 25 Jun 01:27:15 01:30:30 45° 260° (W) 01:33:45 437.505
Oscar 19 25 Jun 01:29:13 01:32:51 19° 94° (E) 01:36:28 437.125/150
POLYITAN 1 25 Jun 01:42:09 01:45:31 23° 290° (WNW) 01:48:52 437.675
QB50P2 25 Jun 01:53:35 01:56:11 16° 293° (WNW) 01:58:48 145.880/145.840
ITUPSAT 1 25 Jun 02:08:53 02:11:38 15° 65° (ENE) 02:14:23 437.325
BUGSAT 1 25 Jun 02:09:38 02:13:43 47° 286° (WNW) 02:17:46 437.445
Gurwin Techsat 1B 25 Jun 02:15:40 02:20:32 35° 98° (E) 02:25:22 435.225
BEESAT 25 Jun 02:18:37 02:22:02 20° 67° (ENE) 02:25:28 436.000
DX 1 25 Jun 02:27:15 02:30:10 18° 265° (W) 02:33:07 434.975-435.025
UKube-1 25 Jun 02:46:06 02:48:48 16° 266° (W) 02:51:30 .
Oscar 19 25 Jun 03:07:29 03:12:17 41° 288° (WNW) 03:17:04 437.125/150
MOZHAYETS 4 25 Jun 03:31:25 03:36:02 73° 76° (ENE) 03:40:40
RS-15 25 Jun 03:31:31 03:38:41 17° 19° (NNE) 03:45:42 29.354- 29.394
ITAMSAT 1 25 Jun 03:43:35 03:48:07 29° 97° (E) 03:52:38 435.822/435.867
ITUPSAT 1 25 Jun 03:44:21 03:48:59 50° 259° (W) 03:53:41 437.325
BEESAT 25 Jun 03:55:05 03:59:30 37° 262° (W) 04:03:57 436.000
Gurwin Techsat 1B 25 Jun 03:55:59 04:00:15 25° 292° (WNW) 04:04:30 435.225
CUBESAT XI-V 25 Jun 04:11:09 04:15:17 33° 72° (ENE) 04:19:25 437.345
AO-7 25 Jun 04:21:23 04:29:42 63° 104° (ESE) 04:37:56 .
NO-84 25 Jun 04:53:17 04:56:53 24° 36° (NE) 05:00:25 435.350 FM
KKS-1 25 Jun 05:09:50 05:14:14 76° 258° (WSW) 05:18:41 437.445
DOVE 4 25 Jun 05:17:40 05:19:30 12° 92° (E) 05:21:21 437.250
ITAMSAT 1 25 Jun 05:23:01 05:27:28 29° 291° (WNW) 05:31:53 435.822/435.867
STARS 25 Jun 05:41:15 05:45:36 83° 256° (WSW) 05:50:01 437.465
RS-15 25 Jun 05:43:56 05:55:31 47° 50° (NE) 06:06:29 29.354- 29.394
CUBESAT XI-V 25 Jun 05:49:15 05:52:40 20° 265° (W) 05:56:05 437.345
XW-2C 25 Jun 06:01:48 06:02:42 11° 92° (E) 06:03:36 145.795 - 145.815
AO-85 25 Jun 06:04:14 06:08:23 65° 60° (ENE) 06:12:50 145.980
STRAND 1 25 Jun 06:11:44 06:12:59 11° 62° (ENE) 06:14:14 437.568
AO-7 25 Jun 06:15:10 06:21:49 27° 301° (WNW) 06:28:28 .
KAITUO 1B 25 Jun 06:16:39 06:18:20 13° 93° (E) 06:20:01 145.475/437.950
CUTE-I 25 Jun 06:22:26 06:26:35 22° 95° (E) 06:30:43 437.470
BEESAT 3 25 Jun 06:25:25 06:29:23 58° 60° (ENE) 06:33:15 437.485
NO-84 25 Jun 06:30:31 06:34:39 44° 233° (SW) 06:38:35 435.350 FM
NUDT-PHONESAT 25 Jun 06:51:38 06:55:06 37° 98° (E) 06:58:30 437.300
DOVE 4 25 Jun 06:52:32 06:57:26 66° 284° (WNW) 07:02:34 437.250
HO-68 25 Jun 07:01:02 07:05:23 17° 92° (E) 07:09:42 435.675
XW-2F 25 Jun 07:05:16 07:09:01 79° 100° (E) 07:12:44 145.980 - 146.000
O/OREOS (USA 219) 25 Jun 07:07:47 07:11:01 19° 61° (ENE) 07:14:14 437.305
XW-2D 25 Jun 07:08:52 07:12:38 84° 283° (WNW) 07:16:22 145.860 - 145.880
LilacSat-2 25 Jun 07:16:31 07:20:16 63° 284° (WNW) 07:23:59 437.200
XW-2B 25 Jun 07:17:53 07:21:37 65° 283° (WNW) 07:25:18 145.730 - 145.750
BEESAT 2 25 Jun 07:23:04 07:27:08 89° 60° (ENE) 07:31:08 435.950
Tancredo 1 25 Jun 07:28:37 07:31:13 27° 132° (SE) 07:33:51 437.200
XW-2C 25 Jun 07:33:32 07:37:03 38° 286° (WNW) 07:40:31 145.795 - 145.815
SEEDS 25 Jun 07:40:41 07:43:20 16° 94° (E) 07:45:59 437.485
ISS 25 Jun 07:42:16 07:44:33 18° 129° (SE) 07:46:52 437.550
STRAND 1 25 Jun 07:46:17 07:51:25 80° 257° (WSW) 07:56:36 437.568
KAITUO 1B 25 Jun 07:49:06 07:52:24 31° 287° (WNW) 07:55:41 145.475/437.950
XW-2A 25 Jun 07:49:56 07:52:37 21° 96° (E) 07:55:16 145.665 - 145.685
CUTE 1.7 + AOD 2 25 Jun 07:56:05 08:00:04 42° 98° (E) 08:04:03 437.475
RS-15 25 Jun 07:56:43 08:08:00 50° 251° (WSW) 08:18:44 29.354- 29.394
CUTE-I 25 Jun 08:01:43 08:06:41 39° 289° (WNW) 08:11:38 437.470
CUBEBUG 2 25 Jun 08:02:34 08:06:30 26° 95° (E) 08:10:19 437.445
NUDT-PHONESAT 25 Jun 08:27:23 08:28:35 11° 293° (WNW) 08:29:48 437.300
AAUSAT CUBESAT 2 25 Jun 08:32:15 08:35:53 30° 97° (E) 08:39:30 437.432
ZACube-1 25 Jun 08:33:56 08:36:53 17° 93° (E) 08:39:47 437.345
UWE-3 25 Jun 08:37:00 08:41:14 36° 97° (E) 08:45:19 435.000/436.395/437.385
O/OREOS (USA 219) 25 Jun 08:46:28 08:50:28 33° 256° (WSW) 08:54:28 437.305
HO-68 25 Jun 08:46:30 08:53:40 75° 288° (WNW) 09:00:47 435.675
Tancredo 1 25 Jun 09:04:23 09:06:48 21° 327° (NNW) 09:09:13 437.200
M-CUBED/EXP-1 PRIME 25 Jun 09:06:16 09:09:15 31° 69° (ENE) 09:12:11 437.505
SEEDS 25 Jun 09:15:21 09:19:04 32° 287° (WNW) 09:22:45 437.485
ISS 25 Jun 09:17:49 09:20:50 34° 323° (NW) 09:23:53 437.550
FO-29 25 Jun 09:19:58 09:25:22 37° 67° (ENE) 09:31:25 435.910
PRISM 25 Jun 09:21:18 09:24:16 20° 69° (ENE) 09:27:14 437.425
TIGRISAT 25 Jun 09:21:31 09:24:51 20° 68° (ENE) 09:28:15 435.000
YUBILEINY 25 Jun 09:23:02 09:31:49 63° 81° (E) 09:40:28 435.215
XW-2A 25 Jun 09:23:03 09:25:09 16° 290° (WNW) 09:27:13 145.665 - 145.685
CUTE 1.7 + AOD 2 25 Jun 09:33:26 09:35:30 13° 293° (WNW) 09:37:32 437.475
AO-73 25 Jun 09:34:04 09:38:30 82° 102° (ESE) 09:42:49 145.935
CUBEBUG 2 25 Jun 09:39:06 09:42:58 26° 290° (WNW) 09:46:46 437.445
Oscar 11 25 Jun 10:01:46 10:06:02 61° 284° (WNW) 10:10:15 .
UNISAT 6 25 Jun 10:02:08 10:06:38 63° 75° (ENE) 10:11:15 437.425
DELFI C3 25 Jun 10:02:32 10:06:00 29° 97° (E) 10:09:27 145.870
AAUSAT CUBESAT 2 25 Jun 10:08:20 10:11:05 18° 291° (WNW) 10:13:49 437.432
ZACube-1 25 Jun 10:09:13 10:13:14 34° 288° (WNW) 10:17:09 437.345
UWE-3 25 Jun 10:14:14 10:17:20 18° 292° (WNW) 10:20:23 435.000/436.395/437.385
HO-68 25 Jun 10:37:37 10:40:09 12° 305° (NW) 10:42:42 435.675
PRISM 25 Jun 10:55:58 10:59:21 25° 263° (W) 11:02:45 437.425
POLYITAN 1 25 Jun 10:57:06 10:59:08 13° 66° (ENE) 11:01:10 437.675
TIGRISAT 25 Jun 10:57:08 11:01:16 33° 263° (W) 11:05:29 435.000
FO-29 25 Jun 11:05:22 11:10:27 30° 266° (W) 11:16:07 435.910
EO-88 25 Jun 11:06:23 11:09:58 55° 284° (WNW) 11:13:30 145.990 - 145.960
QB50P2 25 Jun 11:06:50 11:09:49 19° 69° (ENE) 11:12:49 145.880/145.840
YUBILEINY 25 Jun 11:21:14 11:27:48 24° 278° (W) 11:34:21 435.215
LO-87 25 Jun 11:30:19 11:33:30 28° 97° (E) 11:36:40 145.935 - 145.965
EO-79 25 Jun 11:30:32 11:34:18 32° 72° (ENE) 11:38:07 145.935-145.965
AIST 2D 25 Jun 11:35:09 11:38:42 87° 78° (ENE) 11:42:16 435.315
DELFI C3 25 Jun 11:38:00 11:40:31 17° 291° (WNW) 11:43:02 145.870
UNISAT 6 25 Jun 11:43:06 11:43:43 10° 270° (W) 11:44:20 437.425
DUCHIFAT 1 25 Jun 11:44:44 11:48:37 37° 73° (ENE) 11:52:33 145.980
NANOSAT C BR1 25 Jun 11:52:51 11:56:57 54° 75° (ENE) 12:01:07 145.865
PCSat 25 Jun 12:04:01 12:09:20 62° 112° (ESE) 12:14:41 145.827
ESTCUBE 1 25 Jun 12:17:41 12:22:08 63° 102° (ESE) 12:26:33 437.505/2401.250
VELOX 1 25 Jun 12:22:00 12:24:24 14° 93° (E) 12:26:48 145.980
POLYITAN 1 25 Jun 12:30:23 12:34:28 45° 261° (W) 12:38:35 437.675
QB50P2 25 Jun 12:41:36 12:45:21 30° 263° (W) 12:49:09 145.880/145.840
Oscar 19 25 Jun 12:43:04 12:46:54 22° 67° (ENE) 12:50:45 437.125/150
SPROUT 25 Jun 12:43:45 12:47:30 28° 97° (E) 12:51:13 437.525
50 SAT 25 Jun 12:54:20 12:55:35 12° 94° (E) 12:56:50 437.505
BUGSAT 1 25 Jun 12:55:27 12:59:33 75° 75° (ENE) 13:03:43 437.445
LO-87 25 Jun 13:04:37 13:06:39 14° 291° (WNW) 13:08:39 145.935 - 145.965
EO-79 25 Jun 13:07:16 13:10:06 17° 266° (W) 13:12:57 145.935-145.965
JUGNU 25 Jun 13:14:52 13:17:52 14° 169° (S) 13:20:52 437.505
DUCHIFAT 1 25 Jun 13:22:01 13:24:24 15° 267° (W) 13:26:47 145.980
AO-7 25 Jun 13:30:43 13:33:34 12° 50° (NE) 13:36:25 .
NANOSAT C BR1 25 Jun 13:32:44 13:32:57 10° 268° (W) 13:33:09 145.865
Gurwin Techsat 1B 25 Jun 13:33:32 13:38:28 41° 71° (ENE) 13:43:27 435.225
PCSat 25 Jun 13:49:32 13:53:09 18° 310° (NW) 13:56:46 145.827
Tancredo 1 25 Jun 13:56:27 13:57:24 11° 26° (NNE) 13:58:21 437.200
VELOX 1 25 Jun 13:56:49 14:00:59 42° 287° (WNW) 14:05:10 145.980
ESTCUBE 1 25 Jun 13:57:25 13:58:20 11° 296° (WNW) 13:59:16 437.505/2401.250
ISS 25 Jun 14:13:48 14:14:06 10° 23° (NNE) 14:14:24 437.550
DX 1 25 Jun 14:16:44 14:21:06 83° 286° (WNW) 14:25:29 434.975-435.025
SPROUT 25 Jun 14:20:00 14:23:11 20° 291° (WNW) 14:26:21 437.525
Oscar 19 25 Jun 14:21:07 14:25:55 39° 261° (W) 14:30:45 437.125/150
50 SAT 25 Jun 14:25:26 14:28:25 28° 287° (WNW) 14:31:23 437.505
UKube-1 25 Jun 14:34:13 14:38:33 79° 284° (WNW) 14:42:51 .
SO-50 25 Jun 14:40:10 14:44:44 74° 301° (WNW) 14:49:16 436.795
ITAMSAT 1 25 Jun 14:58:23 15:02:59 33° 69° (ENE) 15:07:37 435.822/435.867
JUGNU 25 Jun 15:02:12 15:06:09 18° 179° (S) 15:10:05 437.505
Gurwin Techsat 1B 25 Jun 15:14:38 15:18:32 21° 266° (W) 15:22:27 435.225
AO-7 25 Jun 15:16:31 15:24:41 65° 69° (ENE) 15:32:55 .
Tancredo 1 25 Jun 15:30:20 15:33:23 89° 48° (NE) 15:36:25 437.200
MOZHAYETS 4 25 Jun 15:30:26 15:33:55 21° 95° (E) 15:37:23
ITUPSAT 1 25 Jun 15:47:51 15:52:32 52° 100° (E) 15:57:11 437.325
ISS 25 Jun 15:47:54 15:51:10 59° 40° (NE) 15:54:25 437.550
BEESAT 25 Jun 15:57:51 16:02:38 70° 102° (ESE) 16:07:22 436.000
ITAMSAT 1 25 Jun 16:38:12 16:42:25 25° 264° (W) 16:46:42 435.822/435.867
SRMSAT 25 Jun 16:47:14 16:50:53 17° 174° (S) 16:54:30 437.500
JUGNU 25 Jun 16:51:10 16:54:26 15° 190° (S) 16:57:42 437.505
KKS-1 25 Jun 17:04:19 17:08:03 26° 97° (E) 17:11:47 437.445
MOZHAYETS 4 25 Jun 17:07:03 17:11:03 30° 289° (WNW) 17:15:01
AO-7 25 Jun 17:11:31 17:17:52 24° 264° (W) 17:24:18 .
ISS 25 Jun 17:26:38 17:27:14 10° 234° (SW) 17:27:49 437.550
ITUPSAT 1 25 Jun 17:27:18 17:29:52 15° 295° (WNW) 17:32:26 437.325
NUDT-PHONESAT 25 Jun 17:29:41 17:31:00 12° 68° (ENE) 17:32:20 437.300
STARS 25 Jun 17:34:19 17:37:49 22° 96° (E) 17:41:17 437.465
BEESAT 25 Jun 17:38:28 17:39:45 11° 297° (WNW) 17:41:01 436.000
CUTE-I 25 Jun 17:41:06 17:45:31 27° 68° (ENE) 17:49:57 437.470
XW-2F 25 Jun 17:43:18 17:46:19 23° 71° (ENE) 17:49:21 145.980 - 146.000
XW-2D 25 Jun 17:46:59 17:50:16 27° 72° (ENE) 17:53:34 145.860 - 145.880
CUBESAT XI-V 25 Jun 17:47:25 17:51:58 64° 285° (WNW) 17:56:30 437.345
LilacSat-2 25 Jun 17:54:57 17:58:30 36° 74° (ENE) 18:02:04 437.200
DOVE 4 25 Jun 17:55:08 17:59:16 86° 77° (ENE) 18:03:31 437.250
XW-2B 25 Jun 17:55:45 17:59:14 34° 73° (ENE) 18:02:43 145.730 - 145.750
XW-2C 25 Jun 18:10:55 18:14:41 56° 75° (ENE) 18:18:27 145.795 - 145.815
KAITUO 1B 25 Jun 18:25:03 18:28:48 66° 76° (ENE) 18:32:33 145.475/437.950
SRMSAT 25 Jun 18:35:32 18:39:19 17° 184° (S) 18:43:05 437.500
KKS-1 25 Jun 18:40:50 18:44:28 25° 291° (WNW) 18:48:05 437.445
CUTE 1.7 + AOD 2 25 Jun 18:46:04 18:49:13 21° 70° (ENE) 18:52:22 437.475
CUBEBUG 2 25 Jun 18:58:14 19:00:56 16° 66° (ENE) 19:03:41 437.445
NUDT-PHONESAT 25 Jun 19:00:58 19:04:30 38° 261° (W) 19:08:02 437.300
STARS 25 Jun 19:10:19 19:14:04 27° 290° (WNW) 19:17:49 437.465
HO-68 25 Jun 19:11:00 19:18:02 60° 70° (ENE) 19:25:05 435.675
XW-2F 25 Jun 19:17:32 19:20:21 19° 265° (W) 19:23:10 145.980 - 146.000
AAUSAT CUBESAT 2 25 Jun 19:20:31 19:22:38 14° 68° (ENE) 19:24:45 437.432
CUTE-I 25 Jun 19:20:40 19:25:23 32° 263° (W) 19:30:09 437.470
XW-2D 25 Jun 19:22:00 19:24:27 16° 266° (W) 19:26:53 145.860 - 145.880
ZACube-1 25 Jun 19:28:43 19:29:27 10° 64° (ENE) 19:30:10 437.345
UWE-3 25 Jun 19:30:59 19:34:24 21° 68° (ENE) 19:37:52 435.000/436.395/437.385
LilacSat-2 25 Jun 19:31:13 19:32:52 12° 267° (W) 19:34:33 437.200
XW-2B 25 Jun 19:31:41 19:33:30 13° 267° (W) 19:35:19 145.730 - 145.750
XW-2A 25 Jun 19:49:31 19:52:57 85° 258° (WSW) 19:56:24 145.665 - 145.685
STRAND 1 25 Jun 20:00:10 20:05:07 45° 99° (E) 20:10:00 437.568
RS-15 25 Jun 20:02:49 20:13:29 39° 105° (ESE) 20:24:22 29.354- 29.394
SEEDS 25 Jun 20:02:52 20:07:04 75° 260° (W) 20:11:16 437.485
BEESAT 3 25 Jun 20:12:43 20:15:41 21° 110° (ESE) 20:18:41 437.485
AO-85 25 Jun 20:15:56 20:19:53 44° 115° (ESE) 20:23:41 145.980
CUTE 1.7 + AOD 2 25 Jun 20:21:13 20:24:51 27° 264° (W) 20:28:29 437.475
AO-73 25 Jun 20:25:44 20:29:59 41° 73° (ENE) 20:34:17 145.935
SRMSAT 25 Jun 20:25:47 20:27:43 12° 194° (SSW) 20:29:39 437.500
YUBILEINY 25 Jun 20:29:48 20:32:48 12° 76° (ENE) 20:35:46 435.215
CUBEBUG 2 25 Jun 20:32:44 20:37:05 45° 262° (W) 20:41:35 437.445
DELFI C3 25 Jun 20:46:54 20:48:07 11° 67° (ENE) 20:49:21 145.870
Oscar 11 25 Jun 20:52:46 20:57:04 65° 76° (ENE) 21:01:23 .
AAUSAT CUBESAT 2 25 Jun 20:53:51 20:57:43 39° 262° (W) 21:01:36 437.432
PCSat 25 Jun 20:55:33 21:00:04 26° 54° (NE) 21:04:33 145.827
ZACube-1 25 Jun 21:00:33 21:05:03 69° 258° (WSW) 21:09:39 437.345
HO-68 25 Jun 21:00:44 21:06:05 22° 266° (W) 21:11:27 435.675
UWE-3 25 Jun 21:06:30 21:10:34 32° 263° (W) 21:14:45 435.000/436.395/437.385
BEESAT 2 25 Jun 21:11:20 21:14:51 32° 113° (ESE) 21:18:27 435.950
O/OREOS (USA 219) 25 Jun 21:16:00 21:20:14 39° 105° (ESE) 21:24:28 437.305
STRAND 1 25 Jun 21:40:22 21:43:53 19° 294° (WNW) 21:47:25 437.568
EO-88 25 Jun 21:40:47 21:44:07 33° 73° (ENE) 21:47:27 145.990 - 145.960
NO-84 25 Jun 21:44:01 21:47:48 84° 313° (NW) 21:51:56 435.350 FM
BEESAT 3 25 Jun 21:49:39 21:53:04 27° 306° (NW) 21:56:32 437.485
AO-85 25 Jun 21:58:11 22:00:26 14° 310° (NW) 22:02:40 145.980
UNISAT 6 25 Jun 21:58:14 22:01:17 17° 93° (E) 22:04:18 437.425
